Weather History for Minchumina, AK

Change the Weather History Date:

Thursday, November 15, 2012

  Actual Average Record
Temperature  
Mean Temperature 4 °F -  
Max Temperature 6 °F 10 °F 21 °F (2013)
Min Temperature 1 °F 0 °F -31 °F (2011)
Degree Days  
Heating Degree Days 62    
Moisture  
Dew Point -8 °F    
Average Humidity 60    
Maximum Humidity 66    
Minimum Humidity 56    
Precipitation  
Precipitation 0.00 in - - ()
Sea Level Pressure  
Sea Level Pressure 29.84 in    
Wind  
Wind Speed 2 mph (North)    
Max Wind Speed 7 mph    
Max Gust Speed -    
Visibility 10 miles    
Events      
Averages and records for this station are not official NWS values.
T = Trace of Precipitation, MM = Missing Value Source: NWS Daily Summary

Daily Weather History Graph

Daily Weather History Graph

Search for Another Location

Airport:

Trip Planner

Search our weather history database for the weather conditions in past years. The results will help you decide how hot, cold, wet, or windy it might be!

Date:

Astronomy

Nov. 15, 2012 Rise Set
Actual Time 9:38 AM AKST 4:08 PM AKST
Civil Twilight 8:38 AM AKST 5:08 PM AKST
Nautical Twilight 7:38 AM AKST 6:08 PM AKST
Astronomical Twilight 6:42 AM AKST 7:04 PM AKST
Moon 12:19 PM AKST (11/15) 5:38 PM AKST (11/15)
Length of Visible Light 8h 30m
Length of Day
6h 30m
Waxing Crescent, 6% of the Moon is Illuminated
Nov 15
Waxing Crescent
Nov 20
First Quarter
Nov 28
Full
Dec 6
Last Quarter
Dec 12
New

Hourly Weather History & Observations

Time (AKST) Temp. Windchill Dew Point Humidity Pressure Visibility Wind Dir Wind Speed Gust Speed Precip Events Conditions
12:16 AM 5.0 °F - -5.8 °F 61% 29.63 in 10.0 mi Calm Calm - N/A   Mostly Cloudy
12:36 AM 6.8 °F - -5.8 °F 56% 29.65 in 10.0 mi Calm Calm - N/A   Overcast
12:56 AM 6.8 °F -0.1 °F -5.8 °F 56% 29.65 in 10.0 mi NNW 3.5 mph - N/A   Overcast
1:16 AM 5.0 °F -4.1 °F -5.8 °F 61% 29.65 in 10.0 mi North 4.6 mph - N/A   Overcast
1:36 AM 5.0 °F -2.1 °F -5.8 °F 61% 29.66 in 10.0 mi North 3.5 mph - N/A   Overcast
1:56 AM 5.0 °F - -5.8 °F 61% 29.66 in 10.0 mi Calm Calm - N/A   Overcast
2:16 AM 5.0 °F -6.9 °F -5.8 °F 61% 29.66 in 10.0 mi North 6.9 mph - N/A   Overcast
2:36 AM 5.0 °F -2.1 °F -5.8 °F 61% 29.67 in 10.0 mi North 3.5 mph - N/A   Overcast
2:56 AM 5.0 °F - -5.8 °F 61% 29.68 in 10.0 mi Calm Calm - N/A   Overcast
3:16 AM 5.0 °F -2.1 °F -5.8 °F 61% 29.68 in 10.0 mi North 3.5 mph - N/A   Overcast
3:36 AM 5.0 °F -2.1 °F -5.8 °F 61% 29.69 in 10.0 mi North 3.5 mph - N/A   Overcast
3:56 AM 5.0 °F - -5.8 °F 61% 29.69 in 10.0 mi Calm Calm - N/A   Overcast
4:16 AM 5.0 °F - -5.8 °F 61% 29.70 in 10.0 mi Calm Calm - N/A   Overcast
4:36 AM 5.0 °F - -5.8 °F 61% 29.71 in 10.0 mi Calm Calm - N/A   Overcast
4:56 AM 5.0 °F - -5.8 °F 61% 29.71 in 10.0 mi Calm Calm - N/A   Overcast
5:16 AM 5.0 °F - -5.8 °F 61% 29.71 in 10.0 mi Calm Calm - N/A   Overcast
5:36 AM 5.0 °F - -5.8 °F 61% 29.72 in 10.0 mi Calm Calm - N/A   Overcast
5:56 AM 5.0 °F -2.1 °F -5.8 °F 61% 29.73 in 10.0 mi NNE 3.5 mph - N/A   Overcast
6:16 AM 3.2 °F - -5.8 °F 66% 29.73 in 10.0 mi Calm Calm - N/A   Overcast
6:36 AM 3.2 °F -4.2 °F -7.6 °F 61% 29.74 in 10.0 mi North 3.5 mph - N/A   Overcast
6:56 AM 3.2 °F - -7.6 °F 61% 29.74 in 10.0 mi Calm Calm - N/A   Overcast
7:16 AM 3.2 °F - -7.6 °F 61% 29.75 in 10.0 mi Calm Calm - N/A   Overcast
7:36 AM 3.2 °F -4.2 °F -7.6 °F 61% 29.75 in 10.0 mi NNW 3.5 mph - N/A   Overcast
7:56 AM 3.2 °F - -7.6 °F 61% 29.76 in 10.0 mi Calm Calm - N/A   Overcast
8:16 AM 3.2 °F -6.2 °F -7.6 °F 61% 29.76 in 10.0 mi North 4.6 mph - N/A   Overcast
8:36 AM 3.2 °F -4.2 °F -7.6 °F 61% 29.77 in 10.0 mi NNW 3.5 mph - N/A   Overcast
8:56 AM 3.2 °F -4.2 °F -7.6 °F 61% 29.78 in 10.0 mi NNW 3.5 mph - N/A   Overcast
9:16 AM 3.2 °F - -7.6 °F 61% 29.78 in 10.0 mi Calm Calm - N/A   Mostly Cloudy
9:36 AM 3.2 °F - -7.6 °F 61% 29.79 in 10.0 mi Calm Calm - N/A   Partly Cloudy
9:56 AM 3.2 °F - -7.6 °F 61% 29.80 in 10.0 mi Calm Calm - N/A   Clear
10:16 AM 3.2 °F -4.2 °F -7.6 °F 61% 29.80 in 10.0 mi NNW 3.5 mph - N/A   Clear
10:36 AM 3.2 °F - -7.6 °F 61% 29.81 in 10.0 mi Calm Calm - N/A   Partly Cloudy
10:56 AM 3.2 °F -4.2 °F -7.6 °F 61% 29.82 in 10.0 mi NNW 3.5 mph - N/A   Scattered Clouds
11:16 AM 3.2 °F -7.8 °F -7.6 °F 61% 29.83 in 10.0 mi NNW 5.8 mph - N/A   Mostly Cloudy
11:36 AM 3.2 °F - -7.6 °F 61% 29.83 in 10.0 mi Calm Calm - N/A   Partly Cloudy
11:56 AM 3.2 °F - -7.6 °F 61% 29.84 in 10.0 mi Calm Calm - N/A   Clear
12:16 PM 3.2 °F -6.2 °F -7.6 °F 61% 29.84 in 10.0 mi North 4.6 mph - N/A   Clear
12:36 PM 3.2 °F -4.2 °F -9.4 °F 56% 29.85 in 10.0 mi North 3.5 mph - N/A   Clear
12:56 PM 3.2 °F -4.2 °F -7.6 °F 61% 29.85 in 10.0 mi North 3.5 mph - N/A   Partly Cloudy
1:16 PM 3.2 °F -4.2 °F -9.4 °F 56% 29.86 in 10.0 mi North 3.5 mph - N/A   Clear
1:36 PM 3.2 °F - -9.4 °F 56% 29.86 in 10.0 mi Calm Calm - N/A   Clear
1:56 PM 3.2 °F - -7.6 °F 61% 29.87 in 10.0 mi Calm Calm - N/A   Clear
2:16 PM 3.2 °F -4.2 °F -7.6 °F 61% 29.87 in 10.0 mi North 3.5 mph - N/A   Clear
2:36 PM 5.0 °F - -7.6 °F 56% 29.88 in 10.0 mi Calm Calm - N/A   Clear
2:56 PM 5.0 °F -2.1 °F -7.6 °F 56% 29.88 in 10.0 mi North 3.5 mph - N/A   Clear
3:16 PM 5.0 °F -2.1 °F -7.6 °F 56% 29.89 in 10.0 mi North 3.5 mph - N/A   Clear
3:36 PM 3.2 °F -6.2 °F -9.4 °F 56% 29.89 in 10.0 mi North 4.6 mph - N/A   Clear
3:56 PM 3.2 °F - -9.4 °F 56% 29.90 in 10.0 mi Calm Calm - N/A   Clear
4:16 PM 3.2 °F - -9.4 °F 56% 29.90 in 10.0 mi Calm Calm - N/A   Clear
4:36 PM 3.2 °F -4.2 °F -9.4 °F 56% 29.91 in 10.0 mi NNE 3.5 mph - N/A   Clear
4:56 PM 3.2 °F -4.2 °F -9.4 °F 56% 29.92 in 10.0 mi NNW 3.5 mph - N/A   Clear
5:16 PM 1.4 °F - -9.4 °F 61% 29.92 in 10.0 mi Calm Calm - N/A   Clear
5:36 PM 1.4 °F - -9.4 °F 61% 29.94 in 10.0 mi Calm Calm - N/A   Clear
5:56 PM 3.2 °F - -9.4 °F 56% 29.94 in 10.0 mi Calm Calm - N/A   Clear
6:16 PM 1.4 °F - -9.4 °F 61% 29.95 in 10.0 mi Calm Calm - N/A   Clear
6:36 PM 1.4 °F - -9.4 °F 61% 29.96 in 10.0 mi Calm Calm - N/A   Clear
6:56 PM 1.4 °F - -9.4 °F 61% 29.97 in 10.0 mi Calm Calm - N/A   Clear
7:16 PM 1.4 °F - -11.2 °F 56% 29.97 in 10.0 mi Calm Calm - N/A   Clear
7:36 PM 1.4 °F - -9.4 °F 61% 29.98 in 10.0 mi Calm Calm - N/A   Clear
7:56 PM 1.4 °F - -11.2 °F 56% 29.99 in 10.0 mi Calm Calm - N/A   Clear
8:16 PM 1.4 °F - -9.4 °F 61% 29.99 in 10.0 mi Calm Calm - N/A   Clear
8:36 PM 1.4 °F -6.2 °F -11.2 °F 56% 30.00 in 10.0 mi NW 3.5 mph - N/A   Clear
8:56 PM 1.4 °F - -9.4 °F 61% 30.01 in 10.0 mi Calm Calm - N/A   Clear
9:16 PM 1.4 °F - -9.4 °F 61% 30.01 in 10.0 mi Calm Calm - N/A   Clear
9:36 PM 1.4 °F - -9.4 °F 61% 30.02 in 10.0 mi Calm Calm - N/A   Clear
9:56 PM 1.4 °F -6.2 °F -11.2 °F 56% 30.02 in 10.0 mi NW 3.5 mph - N/A   Clear
10:16 PM 1.4 °F - -9.4 °F 61% 30.03 in 10.0 mi Calm Calm - N/A   Clear
10:36 PM 1.4 °F - -9.4 °F 61% 30.03 in 10.0 mi Calm Calm - N/A   Clear
10:56 PM 1.4 °F - -11.2 °F 56% 30.03 in 10.0 mi Calm Calm - N/A   Clear
11:16 PM 1.4 °F - -9.4 °F 61% 30.04 in 10.0 mi Calm Calm - N/A   Clear
11:36 PM 1.4 °F - -9.4 °F 61% 30.04 in 10.0 mi Calm Calm - N/A   Clear
11:56 PM 1.4 °F - -9.4 °F 61% 30.05 in 10.0 mi Calm Calm - N/A   Clear